STARLINK-33869 (63790 NORAD) Tracking and Keplerian Element Data

This shows tracking and keplerian element data for the satellite.

Feedback or suggestion? Click here.




ElementValue
Catalog63790
NameSTARLINK-33869
Epoch Orbit3668
Epoch Day354.10463898
Epoch Year2025
RAAN141.7198
Inclination42.9988
Eccentricity0.0001795
Argument of Perigee57.1084
Mean Anonmoly302.994
Mean Motion15.27587737
Decay Rate0.00015158
L11 63790U 25091R 25354.10463898 .00015158 00000+0 55909-3 0 9990
L22 63790 42.9988 141.7198 0001795 57.1084 302.9940 15.27587737 36687



Live tracking and technical data element details for STARLINK-33869 (NORAD 63790). STARLINK-33869 can be tracked NOW for your location showing map with azimuth and elevation plus other details from your city location.







IsCatalogInMostPopularTable: catalog: 63790, numindb: 6
Update: records affected: 1



GetName: 63790 STARLINK-33869

Hit Count: updated at: Sat, 11 Apr 2026 21:38:08 GMT